[[{"header":{"parameterUnit":"m.s-1","parameterCategory":1,"la1":30.2991,"la2":30.254,"lo1":-89.0895,"lo2":-89.0444,"dy":0.0017,"dx":0.0017,"nx":28,"ny":28,"refTime":"2024-12-10T03:00:00:Z","depth":0,"parameterNumber":2,"parameterNumberName":"U-component_of_WINDS"},"data":[0,0,0,0,0,0,0,0,0,0,0,0,0,0,0,0,0,0,0,0,0,0,0,0,0,0,0,0,0,0,0,0,0,0,0,0,0,0,0,0,0,0,0,0,0,0,0,0,0,0,0,0,0,0,0,0,0,0,-0.2779,-0.2779,0,-0.2768,-0.2768,-0.2768,-0.2783,-0.2784,-0.2784,-0.2785,-0.2772,-0.2771,-0.277,0,0,0,0,0,0,0,0,0,0,0,0,0,-0.2813,-0.2812,-0.2779,-0.2779,-0.2779,-0.2768,-0.2768,-0.2767,-0.2783,-0.2784,-0.2784,-0.2785,-0.2772,-0.2771,-0.277,0,0,0,0,0,0,0,0,0,0,0,0,0,-0.2799,-0.2812,-0.2779,-0.2785,-0.2786,-0.2768,-0.2768,-0.2767,-0.2783,-0.2784,-0.2785,-0.2785,-0.2772,-0.2771,-0.277,-0.2745,0,0,-0.2766,-0.2765,0,0,0,0,0,0,0,0,-0.28,-0.2798,-0.2784,-0.2785,-0.2785,-0.2778,-0.2775,-0.276,-0.2783,-0.2784,-0.2785,-0.2786,-0.2773,-0.2772,-0.2768,-0.2744,-0.2744,-0.2766,-0.2765,-0.2764,-0.2764,0,0,0,0,0,0,0,-0.2801,-0.2799,-0.2775,-0.2784,-0.2785,-0.2788,-0.2787,-0.2772,-0.2774,-0.2784,-0.2785,-0.2784,-0.2773,-0.2769,-0.2767,-0.2743,-0.2766,-0.2765,-0.2764,-0.2763,-0.2698,-0.2697,0,0,0,0,0,0,-0.2801,-0.2799,-0.2775,-0.2774,-0.2795,-0.2787,-0.2786,-0.2779,-0.2774,-0.2774,-0.2783,-0.2784,-0.2771,-0.2769,-0.2767,-0.2737,-0.2764,-0.2763,-0.2762,-0.2699,-0.2698,-0.2697,0,0,0,0,0,0,-0.2802,-0.2799,-0.2775,-0.2787,-0.2784,-0.2785,-0.2778,-0.2779,-0.2774,-0.2773,-0.2774,-0.2778,-0.2771,-0.2769,-0.275,-0.2736,-0.2762,-0.2761,-0.27,-0.2699,-0.2697,-0.2676,0,0,0,0,0,0,-0.2803,-0.2799,-0.279,-0.2787,-0.2784,-0.2759,-0.2777,-0.2778,-0.2772,-0.2774,-0.2769,-0.2769,-0.2772,-0.2752,-0.2749,-0.2735,-0.276,-0.2701,-0.27,-0.2698,-0.2678,-0.2674,-0.2671,0,0,0,0,0,-0.2804,-0.2784,-0.2789,-0.2786,-0.2772,-0.2758,-0.2756,-0.2761,-0.2771,-0.2761,-0.2761,-0.2769,-0.2739,-0.275,-0.2747,-0.2732,-0.2702,-0.27,-0.2698,-0.268,-0.2675,-0.2671,0,0,0,0,0,0,-0.2785,-0.2784,-0.279,-0.2768,-0.2763,-0.2761,-0.2749,-0.2756,-0.2747,-0.2749,-0.2755,-0.2753,-0.2733,-0.2731,-0.2744,-0.2707,-0.2722,-0.2719,-0.2709,-0.2705,-0.2701,-0.2702,-0.2759,0,0,0,0,0,-0.2779,-0.2768,-0.2767,-0.2748,-0.2746,-0.2748,-0.2742,-0.2746,-0.274,-0.2738,-0.2736,-0.273,-0.272,-0.2712,-0.2702,-0.2678,-0.2677,-0.2667,-0.2663,-0.266,-0.2657,-0.2643,-0.2639,-0.269,-0.269,-0.269,0,0,-0.2765,-0.2763,-0.2756,-0.2745,-0.2741,-0.2729,-0.2746,-0.2733,-0.2724,-0.2736,-0.2718,-0.2717,-0.271,-0.2689,-0.2679,-0.2686,-0.2643,-0.2658,-0.2655,-0.2654,-0.2641,-0.2636,-0.2631,-0.2689,-0.2689,-0.2689,0,0,-0.2734,-0.2731,-0.2715,-0.2711,-0.2706,-0.2708,-0.2704,-0.27,-0.27,-0.2682,-0.2691,-0.268,-0.2662,-0.2657,-0.2652,-0.2619,-0.2625,-0.2616,-0.2596,-0.2583,-0.2579,-0.2575,-0.2562,-0.2557,-0.2613,-0.2613,-0.2613,0,-0.2717,-0.27,-0.2706,-0.2692,-0.2686,-0.2698,-0.2681,-0.2677,-0.2668,-0.2664,-0.2673,-0.265,-0.2646,-0.2623,-0.2615,-0.2611,-0.2606,-0.2615,-0.2579,-0.2575,-0.2572,-0.256,-0.2555,-0.2611,-0.2612,-0.2612,-0.2612,0,-0.2679,-0.2667,-0.2654,-0.2646,-0.2639,-0.2624,-0.2627,-0.2619,-0.2624,-0.2624,-0.2606,-0.2603,-0.2592,-0.2587,-0.2591,-0.2564,-0.2569,-0.2578,-0.2593,-0.2566,-0.2554,-0.2549,-0.261,-0.261,-0.261,-0.2611,0,0,-0.2634,-0.263,-0.2625,-0.2621,-0.2616,-0.2607,-0.2592,-0.2582,-0.2575,-0.2569,-0.2555,-0.254,-0.2548,-0.2543,-0.2547,-0.2535,-0.2508,-0.2546,-0.2545,-0.2537,-0.2476,-0.2468,-0.2463,-0.2513,-0.2512,-0.2511,-0.2476,0,-0.2602,-0.2576,-0.2581,-0.2556,-0.2544,-0.2555,-0.2542,-0.2537,-0.2537,-0.2527,-0.2527,-0.2516,-0.2528,-0.2525,-0.2514,-0.2513,-0.2495,-0.2516,-0.2499,-0.2499,-0.2499,-0.2457,-0.2449,-0.2416,-0.2472,-0.2471,-0.2471,0,-0.256,-0.2553,-0.2526,-0.2523,-0.2518,-0.2506,-0.2497,-0.2488,-0.2482,-0.2483,-0.2477,-0.2483,-0.2468,-0.2484,-0.2462,-0.2476,-0.247,-0.2468,-0.2467,-0.2465,-0.2482,-0.2452,-0.2406,-0.24,-0.2464,-0.2465,-0.2465,0,-0.2529,-0.2512,-0.2494,-0.2491,-0.2486,-0.2478,-0.2475,-0.2471,-0.2465,-0.2457,-0.2453,-0.2443,-0.2437,-0.243,-0.2433,-0.2444,-0.241,-0.2426,-0.2409,-0.2409,-0.24,-0.24,-0.2351,-0.2398,-0.2399,-0.2399,-0.2399,0,-0.2491,-0.2474,-0.248,-0.2468,-0.2449,-0.2456,-0.2437,-0.2436,-0.2432,-0.242,-0.2429,-0.2418,-0.2424,-0.2412,-0.2415,-0.2396,-0.2394,-0.2393,-0.2394,-0.2391,-0.2391,-0.2386,-0.2388,-0.2397,-0.2398,-0.2398,-0.2398,0,-0.2453,-0.2456,-0.2436,-0.2434,-0.2433,-0.2419,-0.2417,-0.2406,-0.2407,-0.2392,-0.2389,-0.2391,-0.2378,-0.2381,-0.2367,-0.2369,-0.2344,-0.2349,-0.2346,-0.2346,-0.2329,-0.233,-0.2273,-0.2265,-0.2319,-0.2319,-0.2318,0,-0.2428,-0.2415,-0.2411,-0.2404,-0.2401,-0.239,-0.2383,-0.2389,-0.2382,-0.2375,-0.2364,-0.2353,-0.2344,-0.2323,-0.2323,-0.2312,-0.2315,-0.2296,-0.2313,-0.2311,-0.2313,-0.2313,-0.2311,-0.2292,-0.2291,-0.2291,-0.229,0,-0.2383,-0.2385,-0.2375,-0.2366,-0.2358,-0.2351,-0.2345,-0.2338,-0.2344,-0.2335,-0.2322,-0.2315,-0.2301,-0.2289,-0.2279,-0.2277,-0.2284,-0.2285,-0.228,-0.2277,-0.2276,-0.2275,-0.2335,-0.2286,-0.2286,-0.2287,-0.2287,-0.2287,-0.2349,-0.2338,-0.2334,-0.2322,-0.2319,-0.2312,-0.2302,-0.2302,-0.2292,-0.2281,-0.2285,-0.227,-0.2265,-0.2253,-0.2249,-0.2237,-0.2244,-0.2237,-0.2235,-0.2233,-0.2231,-0.2279,-0.2235,-0.2236,-0.2236,-0.2236,-0.2236,0,-0.2304,-0.2302,-0.2291,-0.2282,-0.2273,-0.2282,-0.2276,-0.2267,-0.2254,-0.2249,-0.224,-0.2225,-0.2214,-0.2213,-0.2201,-0.2192,-0.2195,-0.2189,-0.2189,-0.2188,-0.2226,-0.223,-0.2187,-0.2187,-0.2187,-0.2187,-0.2187,-0.2187,-0.2279,-0.226,-0.2262,-0.2241,-0.2239,-0.2225,-0.222,-0.2214,-0.221,-0.2193,-0.2184,-0.2183,-0.2179,-0.2168,-0.2158,-0.2158,-0.2152,-0.2145,-0.2146,-0.2181,-0.2185,-0.219,-0.2194,-0.2144,-0.2144,-0.2109,-0.2109,-0.2108]},{"header":{"parameterUnit":"m.s-1","parameterCategory":1,"la1":30.2991,"la2":30.254,"lo1":-89.0895,"lo2":-89.0444,"dy":0.0017,"dx":0.0017,"nx":28,"ny":28,"refTime":"2024-12-10T03:00:00:Z","depth":0,"parameterNumber":3,"parameterNumberName":"V-component_of_WINDS"},"data":[0,0,0,0,0,0,0,0,0,0,0,0,0,0,0,0,0,0,0,0,0,0,0,0,0,0,0,0,0,0,0,0,0,0,0,0,0,0,0,0,0,0,0,0,0,0,0,0,0,0,0,0,0,0,0,0,0,0,3.2951,3.2952,0,3.3087,3.3088,3.309,3.3088,3.3086,3.3085,3.3083,3.3225,3.323,3.3236,0,0,0,0,0,0,0,0,0,0,0,0,0,3.2693,3.2698,3.2951,3.2952,3.2954,3.3086,3.3088,3.309,3.3089,3.3086,3.3084,3.3082,3.3223,3.3229,3.3236,0,0,0,0,0,0,0,0,0,0,0,0,0,3.2814,3.2699,3.295,3.2969,3.2972,3.3086,3.3088,3.3091,3.3089,3.3086,3.3084,3.3081,3.3221,3.3229,3.3237,3.3342,0,0,3.3262,3.3266,0,0,0,0,0,0,0,0,3.2808,3.2824,3.2965,3.2968,3.2972,3.3068,3.3049,3.3175,3.309,3.3045,3.3083,3.308,3.3175,3.3187,3.3218,3.3348,3.3355,3.3263,3.3268,3.3271,3.3274,0,0,0,0,0,0,0,3.2799,3.2818,3.3004,3.2967,3.2971,3.2972,3.2986,3.3073,3.3123,3.3048,3.3049,3.3065,3.3176,3.321,3.3222,3.3357,3.3262,3.327,3.3275,3.3278,3.3582,3.3585,0,0,0,0,0,0,3.2786,3.2811,3.3,3.3009,3.2881,3.2979,3.2995,3.304,3.3122,3.3132,3.3067,3.3064,3.3198,3.3212,3.3227,3.3357,3.3271,3.3279,3.3284,3.3579,3.3583,3.3586,0,0,0,0,0,0,3.2781,3.2803,3.2995,3.291,3.2934,3.2986,3.3036,3.3044,3.3078,3.3136,3.3146,3.3092,3.3196,3.3215,3.3313,3.3362,3.3283,3.329,3.3575,3.358,3.3584,3.3617,0,0,0,0,0,0,3.2773,3.2801,3.2841,3.2911,3.2939,3.3079,3.3039,3.3048,3.3092,3.3089,3.3163,3.3172,3.3195,3.3301,3.3322,3.3372,3.3296,3.3571,3.3577,3.3583,3.3612,3.3622,3.3631,0,0,0,0,0,3.2764,3.2845,3.2843,3.2866,3.2989,3.3081,3.3097,3.3122,3.3095,3.3136,3.3174,3.317,3.3352,3.3311,3.3334,3.3387,3.3568,3.3576,3.3582,3.3607,3.362,3.3631,0,0,0,0,0,0,3.278,3.2854,3.2853,3.2958,3.3013,3.3081,3.3133,3.3134,3.3198,3.3194,3.3222,3.3238,3.3337,3.3372,3.3325,3.3494,3.3457,3.3469,3.3468,3.3481,3.349,3.3481,3.3303,0,0,0,0,0,3.2796,3.2863,3.2925,3.3012,3.3039,3.3081,3.3122,3.3136,3.3195,3.3218,3.3263,3.3321,3.3392,3.3438,3.3506,3.3616,3.3633,3.3664,3.3673,3.3681,3.3692,3.3755,3.377,3.3609,3.3609,3.3609,0,0,3.2829,3.2878,3.2919,3.3016,3.306,3.3131,3.3101,3.3177,3.323,3.323,3.3327,3.3361,3.3428,3.3533,3.3582,3.3565,3.374,3.369,3.3696,3.3703,3.3764,3.3779,3.3792,3.3614,3.3613,3.3613,0,0,3.2926,3.2969,3.3047,3.3092,3.3159,3.3187,3.3206,3.3273,3.3296,3.3393,3.3395,3.3459,3.3579,3.3627,3.3667,3.3783,3.3783,3.3804,3.3856,3.3917,3.3929,3.3941,3.3985,3.4,3.3814,3.3814,3.3815,0,3.296,3.3066,3.3088,3.3164,3.3208,3.321,3.3291,3.3333,3.342,3.345,3.3429,3.3582,3.3626,3.3744,3.3772,3.3804,3.3828,3.3797,3.3925,3.3937,3.3948,3.399,3.4006,3.3817,3.3817,3.3816,3.3816,0,3.3105,3.3178,3.3233,3.3316,3.3365,3.3443,3.3479,3.3526,3.3536,3.3566,3.3665,3.3719,3.3798,3.3827,3.3837,3.3947,3.3934,3.3919,3.3883,3.3966,3.4006,3.4022,3.382,3.3819,3.3819,3.3818,0,0,3.3218,3.3311,3.3332,3.337,3.3444,3.3502,3.358,3.3658,3.3699,3.3758,3.3827,3.3928,3.3915,3.3961,3.3976,3.4029,3.412,3.4008,3.401,3.4029,3.4248,3.426,3.4279,3.4119,3.4122,3.4125,3.4243,0,3.3325,3.3464,3.3486,3.3609,3.3678,3.3681,3.375,3.3804,3.3834,3.3898,3.3931,3.4004,3.3979,3.4007,3.406,3.4098,3.4165,3.4089,3.4185,3.4188,3.4171,3.4299,3.4313,3.4422,3.4258,3.4261,3.4263,0,3.3469,3.3532,3.3662,3.3728,3.3757,3.3819,3.3892,3.3952,3.4014,3.4032,3.4083,3.4092,3.4175,3.4133,3.425,3.4198,3.4238,3.4263,3.4267,3.428,3.4233,3.4318,3.4457,3.4475,3.4287,3.4285,3.4284,0,3.3542,3.3659,3.3752,3.3784,3.3863,3.3906,3.3941,3.4,3.4045,3.4109,3.414,3.4212,3.4253,3.431,3.4339,3.4306,3.4455,3.4415,3.4474,3.4474,3.4508,3.4506,3.4658,3.4529,3.4528,3.4528,3.4528,0,3.3661,3.3741,3.3786,3.3844,3.3933,3.3958,3.4047,3.4081,3.4133,3.4199,3.4205,3.4266,3.4299,3.4366,3.4389,3.4484,3.4501,3.452,3.4526,3.4521,3.4519,3.455,3.4544,3.4533,3.4532,3.4531,3.453,0,3.3759,3.3792,3.3894,3.396,3.3978,3.4042,3.4099,3.4156,3.4185,3.4268,3.4289,3.4335,3.4414,3.4448,3.4545,3.4561,3.4669,3.4668,3.4649,3.4652,3.471,3.4705,3.4891,3.4917,3.4767,3.4768,3.4769,0,3.3834,3.3896,3.3968,3.4012,3.4048,3.4119,3.4165,3.4192,3.424,3.4315,3.4363,3.4442,3.4507,3.4633,3.4676,3.4751,3.4754,3.4813,3.4765,3.4759,3.4758,3.4755,3.4763,3.4823,3.4824,3.4826,3.4827,0,3.3966,3.3979,3.4045,3.4118,3.4173,3.4231,3.4288,3.4324,3.436,3.4414,3.4494,3.4544,3.4643,3.4723,3.48,3.4837,3.484,3.4841,3.4859,3.4857,3.4844,3.4855,3.4676,3.4837,3.4836,3.4836,3.4835,3.4834,3.4057,3.4112,3.4172,3.4246,3.4292,3.4345,3.4402,3.4438,3.4506,3.4588,3.46,3.4686,3.4747,3.4851,3.4891,3.4961,3.4946,3.4972,3.4979,3.4986,3.4991,3.4831,3.4974,3.4974,3.4974,3.4974,3.4973,0,3.4191,3.4229,3.4297,3.4377,3.4435,3.443,3.4493,3.4543,3.4619,3.4675,3.4738,3.4831,3.4908,3.4957,3.5035,3.5081,3.5084,3.5101,3.5099,3.5109,3.4998,3.4976,3.5097,3.5097,3.5097,3.5097,3.5097,3.5097,3.4268,3.4362,3.4383,3.45,3.4538,3.4623,3.466,3.471,3.4755,3.4858,3.4922,3.4953,3.5007,3.5089,3.5159,3.5172,3.5202,3.522,3.5232,3.5129,3.5116,3.5104,3.5083,3.5225,3.5226,3.5337,3.5338,3.5339]}]]